Regional Weather Roundup
Issued by NWS Northern Indiana

Home | Current Version | Previous Version | Graphics & Text | Print | Product List | Glossary Off
Versions: 1 2 3 4 5 6 7 8 9 10 11 12 13 14 15 16 17 18 19 20 21 22 23 24 25 26 27 28 29 30 31 32 33 34 35 36 37 38 39 40 41 42 43 44 45 46 47 48 49 50

000
ASUS43 KIWX 061600
RWRIWX

KIWX WEATHER ROUNDUP
NATIONAL WEATHER SERVICE NORTHERN INDIANA
1100 AM EST TUE DEC 06 2016

NOTE: "FAIR" INDICATES FEW OR NO CLOUDS BELOW 12,000 FEET WITH NO
SIGNIFICANT WEATHER AND/OR OBSTRUCTIONS TO VISIBILITY.

* THESE STATIONS ARE NOT UNDER NWS QUALITY CONTROL. THEY ALSO MAY NOT
  REPORT WEATHER SUCH AS PRECIPITATION OR FOG.

INZ001>027-061700-
NORTHERN INDIANA

CITY           SKY/WX    TMP DP  RH WIND       PRES   REMARKS
SOUTH BEND     CLOUDY    34  30  85 E7        29.75S WCI  28
GOSHEN         CLOUDY   N/A N/A N/A MISG      29.74R
MONTICELLO*    CLOUDY    35  28  77 N3        29.74F
ANGOLA*        MOSUNNY   36  25  64 E12       29.74F
FORT WAYNE     LGT RAIN  34  30  85 E7        29.75S WCI  28
PERU/GRISSOM   LGT RAIN  33  33  97 NE8       29.70S WCI  27

$$
INZ028>050-061700-
CENTRAL INDIANA

CITY           SKY/WX    TMP DP  RH WIND       PRES   REMARKS
LAFAYETTE      CLOUDY    37  33  85 N5        29.75S
KOKOMO*        LGT RAIN  33  31  92 E13       29.70  FOG     WCI  24
MUNCIE*        LGT RAIN  35  32  88 NE6       29.71F FOG     WCI  30
INDIANAPOLIS   LGT RAIN  38  36  92 NE7       29.70S FOG

$$
MIZ043>046-050>051-056>058-064>065-071>073-077>080-061700-
SOUTHWEST LOWER MICHIGAN

CITY           SKY/WX    TMP DP  RH WIND       PRES   REMARKS
BATTLE CREEK   CLOUDY    37  33  85 E7        29.76S
BENTON HARBOR  CLOUDY    35  30  82 E7        29.75F HAZE    WCI  29
COLDWATER*     CLOUDY    38  32  80 E14G20    29.71F
HILLSDALE*     CLOUDY    34  32  93 E10       29.74F WCI  26
HOLLAND        CLOUDY    33  30  88 E9        29.77F WCI  25
GRAND RAPIDS   CLOUDY    32  29  88 NE8       29.79F FOG     WCI  25
KALAMAZOO      CLOUDY    37  31  78 VRB3      29.75S
STURGIS*       CLOUDY    37  31  81 E8        29.72F
THREE RIVERS*    N/A    N/A N/A N/A MISG        N/A

$$
OHZ001>008-015>018-024>025-061700-
NORTHWEST OHIO

CITY           SKY/WX    TMP DP  RH WIND       PRES   REMARKS
DEFIANCE       CLOUDY    37  30  75 E7        29.76S
FINDLAY        RAIN      36  31  82 E8        29.71F
TOLEDO EXPRESS CLOUDY    38  31  76 E9        29.76R
TOLEDO METCALF CLOUDY    39  31  72 E9        29.76F
LIMA           RAIN      35  34  96 E5        29.71R FOG     WCI  31

$$
AND FOR LAKE MICHIGAN COASTAL AND OPEN LAKE BUOY OBSERVATIONS

STATION/POSITION TEMP    WIND        PRES    VSBY  WAVE
                 AIR SEA DIR/SP/G                  HT/PER
                 (F)     (DEG/KT/KT) (MB)    (MI)  (FT/S)
CALUMET HARBOR    38     110/  1/  3 1007.7R
BURNS HARBOR      36      70/  6/  8 1008.5F
SAINT JOSEPH      34      10/  2/  6 1008.8

$$
&&




USA.gov is the U.S. government's official web portal to all federal, state and local government web resources and services.